User: anonymous   Login
Location: Newark
(20.0000°S, 47.0000°E)
Time: 20:52:44
(UTC+00:00)
Language:

Envisat - Orbit

View from above orbital plane
View from above orbital plane
View from above satellite
View from above satellite

Ground track
Ground track

The orbit data is extracted from the following two-line orbital elements,

1 27386U 02009A   19200.51627720 -.00000008  00000-0  10749-4 0  9993
2 27386  98.1478 219.9648 0001408  93.6800  80.7119 14.37952907910624
Epoch (UTC): 19 July 2019 12:23:26
Eccentricity: 0.0001408
inclination: 98.1478°
perigee height: 764 km
apogee height: 766 km
right ascension of ascending node: 219.9648°
argument of perigee: 93.6800°
revolutions per day: 14.37952907
mean anomaly at epoch: 80.7119°
orbit number at epoch: 91062

The dashed part of the orbit path shows where the satellite is in the earth's shadow,  

DLR